Kenosha, WI

10:26 AM CDT on June 26, 2017 (GMT -0500)
Kenosha Regional

Weather History for KENW - December, 2011

Change the Weather History Date:

Friday, December 23, 2011

  Actual Average Record
Temperature  
Mean Temperature 25 °F -  
Max Temperature 32 °F 31 °F 57 °F (2015)
Min Temperature 18 °F 16 °F -21 °F (1983)
Degree Days  
Heating Degree Days 40    
Moisture  
Dew Point 18 °F    
Average Humidity 69    
Maximum Humidity 84    
Minimum Humidity 54    
Precipitation  
Precipitation 0.00 in - - ()
Sea Level Pressure  
Sea Level Pressure 30.28 in    
Wind  
Wind Speed 7 mph (WSW)    
Max Wind Speed 14 mph    
Max Gust Speed 24 mph    
Visibility 10 miles    
Events      
Averages and records for this station are not official NWS values.
T = Trace of Precipitation, MM = Missing Value Source: NWS Daily Summary

Daily Weather History Graph

Daily Weather History Graph

Search for Another Location

Airport or City:

Trip Planner

Search our weather history database for the weather conditions in past years. The results will help you decide how hot, cold, wet, or windy it might be!

Date:

Astronomy

Dec. 23, 2011 Rise Set
Actual Time 7:19 AM CST 4:22 PM CST
Civil Twilight 6:47 AM CST 4:54 PM CST
Nautical Twilight 6:11 AM CST 5:30 PM CST
Astronomical Twilight 5:37 AM CST 6:04 PM CST
Moon 6:08 AM CST (12/23) 3:30 PM CST (12/23)
Length of Visible Light 10h 07m
Length of Day
9h 03m
Waning Crescent, 1% of the Moon is Illuminated
Dec 23
Waning Crescent
Dec 24
New
Jan 1
First Quarter
Jan 9
Full
Jan 16
Last Quarter

Hourly Weather History & Observations

Time (CST) Temp. Windchill Dew Point Humidity Pressure Visibility Wind Dir Wind Speed Gust Speed Precip Events Conditions
12:53 AM 28.9 °F 21.9 °F 18.0 °F 64% 30.30 in 10.0 mi NNW 6.9 mph - N/A   Overcast
1:53 AM 27.0 °F 21.6 °F 16.0 °F 63% 30.32 in 10.0 mi Variable 4.6 mph - N/A   Scattered Clouds
2:53 AM 23.0 °F 15.8 °F 16.0 °F 74% 30.33 in 10.0 mi NW 5.8 mph - N/A   Clear
3:53 AM 21.9 °F 15.7 °F 15.1 °F 75% 30.33 in 10.0 mi NW 4.6 mph - N/A   Clear
4:53 AM 19.9 °F 12.1 °F 14.0 °F 78% 30.33 in 10.0 mi WNW 5.8 mph - N/A   Clear
5:53 AM 19.0 °F 11.1 °F 14.0 °F 81% 30.35 in 10.0 mi WNW 5.8 mph - N/A   Clear
6:53 AM 19.0 °F 11.1 °F 12.9 °F 77% 30.36 in 10.0 mi WNW 5.8 mph - N/A   Clear
7:53 AM 18.0 °F 12.7 °F 14.0 °F 84% 30.36 in 9.0 mi WNW 3.5 mph - N/A   Clear
8:53 AM 21.9 °F 17.2 °F 15.1 °F 75% 30.36 in 10.0 mi West 3.5 mph - N/A   Clear
9:53 AM 26.1 °F 20.5 °F 17.1 °F 69% 30.35 in 10.0 mi South 4.6 mph - N/A   Clear
10:53 AM 30.0 °F 21.7 °F 16.0 °F 56% 30.33 in 10.0 mi SSW 9.2 mph - N/A   Clear
11:53 AM 30.9 °F 22.8 °F 17.1 °F 57% 30.29 in 10.0 mi SSW 9.2 mph - N/A   Clear
12:53 PM 32.0 °F 24.2 °F 17.1 °F 54% 30.26 in 10.0 mi SW 9.2 mph - N/A   Clear
1:53 PM 30.9 °F 23.5 °F 17.1 °F 57% 30.23 in 10.0 mi SW 8.1 mph - N/A   Scattered Clouds
2:53 PM 30.9 °F 21.7 °F 18.0 °F 59% 30.22 in 10.0 mi SW 11.5 mph - N/A   Mostly Cloudy
3:53 PM 30.0 °F 20.0 °F 19.0 °F 64% 30.21 in 10.0 mi SSW 12.7 mph - N/A   Overcast
4:53 PM 30.0 °F 20.5 °F 19.9 °F 66% 30.22 in 10.0 mi SW 11.5 mph 17.3 mph N/A   Overcast
5:53 PM 30.0 °F 21.1 °F 21.0 °F 69% 30.22 in 10.0 mi SW 10.4 mph - N/A   Overcast
6:53 PM 28.9 °F 19.8 °F 19.9 °F 69% 30.22 in 10.0 mi SW 10.4 mph 20.7 mph 0.00 in   Overcast
7:53 PM 28.9 °F 19.2 °F 21.0 °F 72% 30.23 in 9.0 mi SW 11.5 mph - N/A   Overcast
8:53 PM 28.9 °F 18.2 °F 19.9 °F 69% 30.24 in 8.0 mi WSW 13.8 mph 19.6 mph N/A   Overcast
9:53 PM 28.0 °F 17.5 °F 19.9 °F 72% 30.25 in 8.0 mi WSW 12.7 mph 24.2 mph N/A   Overcast
10:53 PM 28.0 °F 18.6 °F 21.0 °F 75% 30.25 in 7.0 mi WSW 10.4 mph - N/A   Overcast
11:53 PM 28.0 °F 18.6 °F 21.0 °F 75% 30.25 in 7.0 mi WSW 10.4 mph - N/A   Overcast